sat.trackr.live / text

‹ back to catalog

HOKUSHIN-1

NORAD 69648 · 1998-067YH

PAYLOAD ACTIVE UNKNOWN

§ Identity

Operator
Country
JPN
Launch date
1998-11-20
Launch site
TYMSC
Launch vehicle
Mass (kg)
RCS (m²)

External: N2YO · Heavens-Above · Gunter

§ Orbital elements

Epoch: 2026-09-19T12:41:00.777408Z

Period
92.66 min
Inclination
51.6303°
Eccentricity
0.0005849
Mean motion
15.54050699 rev/d
Perigee alt
400.9 km
Apogee alt
408.9 km
Semi-major
6,783.1 km
B*
3.4116e-4
RAAN
191.3052°
Arg perigee
182.8085°
Mean anomaly
177.2874°
Rev number
1,430

§ Raw data

HOKUSHIN-11 69648U 98067YH  26262.52848122  .00022115  00000+0  34116-3 0  99912 69648  51.6303 191.3052 0005849 182.8085 177.2874 15.54050699 14300

JSON: /api/v1/satellites/69648 · /tle

For live sub-satellite position, see the globe view (requires WebGL).

§ Visibility from observer

Set your observer location to see the next 7 days of passes ≥ 10°. The values pass through the URL so the page stays shareable.

No JS? Fill the form by hand. The geolocation button needs JavaScript.

§ Radio — SatNOGS DB

ModeDescriptionDownlinkUplink
UNKNOWN Mode S - Transmitter 2.288 GHz

1 transmitter · refreshed weekly from db.satnogs.org